{"data":{"norad_id":59522,"intl_designator":"2024-073M","name":"STARLINK-31453","alt_names":[],"object_type":"PAYLOAD","status":"ACTIVE","operator":null,"country":"US","launch_date":"2024-04-17","launch_site_code":"AFETR","launch_vehicle":null,"mission":null,"orbit_class":"UNKNOWN","rcs_meters":null,"size_class":null,"mass_kg":null,"dimensions":null,"purposes":["comms"],"wikipedia_slug":null,"has_3d_model":false,"image_url":null,"decayed_at":null,"tle_current":{"epoch":"2026-09-21T18:10:27.058368Z","epoch_age_seconds":56460,"freshness":"FRESH","line1":"1 59522U 24073M   26264.75725762  .00015455  00000+0  56975-3 0  9994","line2":"2 59522  43.0017 272.9587 0001590 277.9255  82.1416 15.27593102136368","mean_motion":15.27593102,"eccentricity":0.000159,"inclination_deg":43.0017,"raan_deg":272.9587,"arg_perigee_deg":277.9255,"mean_anomaly_deg":82.1416,"bstar":0.00056975,"rev_number":13636,"period_min":94.265940197994,"perigee_km":481.91894186723,"apogee_km":484.10078657005,"semimajor_km":6861.1468642186,"source":"CELESTRAK","updated_at":"2026-09-22T09:00:48.964879Z"}}}